Humidity-temperature Sensor

Selected Measurement Type: Relative Humidity

 
Relative Humidity [%]     6 entries per hour
Showing data from 10/13/2015 (00:00:00 Z) to 10/12/2015 (00:01:00 Z)
Previous Next [ Day | 3-Days | 7-Days ]
First Last
Prev [ Day | 3-Days | 7-Days ] Next
First Last

Start Time:     :
End Time:     :     
Time (in GMT) :00 :50 :40 :30 :20 :10
Previous Next [ Day | 3-Days | 7-Days ]
First Last
Prev [ Day | 3-Days | 7-Days ] Next
First Last


123 => good data
MM => data is determined as missing
-- => data not received/configured
Back to Top Back to Top
10/13/2015 00:00 to 23:10 76.24 77.09 77.56 77.24 76.72 76.03
10/12/2015 23:00 to 22:10 75.70 75.44 76.07 76.40 75.16 75.94
10/12/2015 22:00 to 21:10 77.24 77.09 76.22 76.42 75.77 74.99
10/12/2015 21:00 to 20:10 75.42 76.29 75.98 76.22 75.53 74.45
10/12/2015 20:00 to 19:10 74.73 75.18 73.02 74.34 74.75 74.43
10/12/2015 19:00 to 18:10 75.25 73.91 72.93 73.28 74.90 75.12
10/12/2015 18:00 to 17:10 75.01 73.67 72.63 73.63 74.82 73.80
10/12/2015 17:00 to 16:10 73.26 72.63 71.79 70.81 71.89 73.63
10/12/2015 16:00 to 15:10 72.28 72.74 73.86 74.86 73.88 74.86
10/12/2015 15:00 to 14:10 74.86 74.88 75.59 76.42 77.56 78.24
10/12/2015 14:00 to 13:10 77.78 77.02 77.22 76.20 77.05 76.61
10/12/2015 13:00 to 12:10 76.61 76.63 77.00 76.61 76.57 76.37
10/12/2015 12:00 to 11:10 76.76 75.68 76.66 75.77 75.44 78.45
10/12/2015 11:00 to 10:10 76.81 77.78 77.87 76.55 75.51 75.94
10/12/2015 10:00 to 9:10 77.67 76.09 75.25 74.47 74.62 74.25
10/12/2015 09:00 to 8:10 75.49 75.77 74.82 76.42 75.34 77.02
10/12/2015 08:00 to 7:10 75.70 76.09 75.70 76.16 74.71 74.36
10/12/2015 07:00 to 6:10 74.51 73.30 74.64 74.56 73.56 73.37
10/12/2015 06:00 to 5:10 72.67 72.74 72.91 70.92 71.92 72.72
10/12/2015 05:00 to 4:10 71.20 71.50 71.29 72.89 71.72 73.06
10/12/2015 04:00 to 3:10 72.13 71.74 72.35 73.52 73.37 72.46
10/12/2015 03:00 to 2:10 75.85 77.17 75.94 74.60 74.69 73.02
10/12/2015 02:00 to 1:10 73.24 72.69 72.30 72.33 72.07 72.78
10/12/2015 01:00 to 0:10 72.48 72.11 72.20 72.85 71.66 71.96